Location: CNYAC Observatory
(43.2150°N, 74.9500°W)
Time: 08:19:43
(UTC-05:00)

Daily predictions for brighter satellites

Satellite Brightness Start Highest point End
(mag) Time Altitude Azimuth Time Altitude Azimuth Time Altitude Azimuth
Cosmos 1484 Rocket 3.3 17:25:53 10° SE 17:29:35 39° ENE 17:33:21 10° N
Abrixas 2.8 17:28:53 10° W 17:31:46 56° NNW 17:34:40 10° ENE
CZ-2C R/B 2.7 17:27:34 10° S 17:32:30 76° WSW 17:37:17 10° NNW
Cosmos 1707 Rocket 4.4 17:29:12 10° NNE 17:33:00 29° ENE 17:36:47 10° SE
Cosmos 1340 Rocket 3.1 17:30:35 10° SSE 17:34:19 44° E 17:38:04 10° NNE
YAOGAN 1 2.6 17:31:23 10° SSE 17:35:43 89° E 17:40:05 10° NNW
COSMO-SKYMED 1 3.2 17:32:52 10° NNE 17:36:51 34° E 17:40:49 10° SSE
COSMOS 2441 4.3 17:34:50 10° SSE 17:39:40 72° ENE 17:44:30 10° N
CORIOLIS 4.3 17:34:29 10° SSE 17:39:50 86° WSW 17:45:15 10° NNW
SMAP 3.4 17:35:22 10° S 17:40:00 73° WSW 17:44:40 10° NNW
ATLAS 5 CENTAUR R/B 4.1 17:41:50 10° N 17:44:36 13° NNE 17:47:29 10° NE
Cosmos 1666 Rocket 4.4 17:41:03 10° SSE 17:44:49 29° E 17:48:38 10° NNE
CENTAUR R/B 4.0 17:39:27 10° W 17:45:04 32° NW 17:51:20 10° NNE
Cosmos 1980 4.3 17:42:59 10° SW 17:48:35 58° WNW 17:54:12 10° NNE
Lacrosse 4 Rocket 2.1 17:46:56 10° N 17:50:33 30° NE 17:54:10 10° ESE
Cosmos 1626 2.6 17:51:17 10° SSE 17:54:46 39° E 17:58:18 10° NNE
USA 229 DEB 4.2 17:51:59 10° S 17:58:16 41° ESE 18:04:29 11° NE
USA 229 4.2 17:52:06 10° S 17:58:23 41° ESE 18:04:32 11° NE
Cosmos 1151 Rocket 4.3 17:54:50 10° NNW 17:58:55 44° W 18:03:00 10° SSW
Resurs 01 Rocket 3.0 17:58:42 10° ESE 18:01:40 18° ENE 18:04:38 10° NNE
Cosmos 1943 Rocket 4.0 18:01:13 10° NNE 18:02:28 11° NE 18:02:59 11° NE
Blok-2BL 4.5 18:01:08 10° NNW 18:03:50 23° NE 18:04:52 19° ENE
Cosmos 2219 Rocket 3.9 17:58:58 10° WSW 18:03:56 31° NW 18:08:54 10° N
Cosmos 2058 3.4 18:01:25 10° SSW 18:05:29 63° W 18:09:34 10° N
Cosmos 1184 Rocket 3.3 18:03:32 10° SSE 18:06:39 38° E 18:09:37 11° NNE
SKYMED 3 4.5 18:02:38 10° NNE 18:07:00 74° ESE 18:11:20 10° S
Cosmos 1726 4.2 18:03:57 10° NNW 18:07:19 31° W 18:10:40 10° SSW
Cosmos 2279 Rocket 4.2 18:01:22 10° N 18:07:36 79° W 18:13:49 10° S
CZ-4C R/B 4.3 18:03:50 10° NNW 18:07:59 17° NNE 18:11:11 13° NE
Iridium 4 Rocket 3.9 18:07:12 10° SE 18:10:55 28° E 18:14:31 10° NNE
Spot 2 Rocket 4.4 18:09:16 10° ESE 18:13:21 25° ENE 18:17:27 10° N
Cosmos 1603 4.3 18:08:42 10° SSE 18:13:42 34° ESE 18:17:31 16° NE
Cosmos 2333 Rocket 3.8 18:09:46 10° WSW 18:14:48 32° NW 18:19:52 10° N
Cosmos 1461 3.3 18:11:32 10° SW 18:15:39 59° NW 18:19:26 11° NNE
Cosmos 304 Rocket 4.2 18:11:14 10° SSW 18:16:00 66° WNW 18:20:48 10° NNE
Lacrosse 5 rocket 4.2 18:13:23 10° W 18:16:04 18° SW 18:18:49 10° S
FREGAT/IRIS 3.3 18:13:44 10° SE 18:16:29 32° ENE 18:19:17 10° N
Aureole 1 Rocket 4.1 18:11:09 10° S 18:16:35 55° ESE 18:23:40 10° NNE
DMSP B5D1-3 4.5 18:12:36 10° NNE 18:17:41 68° ESE 18:22:45 10° S
Cosmos 1470 Rocket 4.4 18:14:18 10° SSE 18:17:59 27° E 18:19:50 20° NE
Cosmos 2278 Rocket 4.4 18:14:00 10° NW 18:18:50 29° WSW 18:23:38 10° SSW
Cosmos 1242 Rocket 3.2 18:16:02 10° N 18:19:09 30° ENE 18:22:16 10° SE
Cosmos 1455 2.0 18:16:54 10° N 18:20:42 72° E 18:24:31 10° SSE
Tiangong 1 2.8 18:20:05 10° SSW 18:22:13 18° SSE 18:22:42 17° SE
Cosmos 1805 Rocket 3.8 18:18:17 10° SSW 18:22:44 73° W 18:27:12 10° N
Cosmos 1356 Rocket 3.3 18:20:42 10° S 18:24:42 88° WNW 18:28:43 10° N
SKYMED 2 3.8 18:20:41 10° N 18:25:01 71° WNW 18:29:20 10° SSW
Nadezhda 4 Rocket 3.9 18:21:34 10° S 18:27:48 75° E 18:34:09 10° N
Cosmos 2242 Rocket 3.5 18:25:08 10° N 18:29:31 60° E 18:33:55 10° SSE
Cosmos 1538 Rocket 4.2 18:26:24 10° SSW 18:31:42 76° WNW 18:37:06 10° NNE
Sich 1 3.1 18:29:05 10° S 18:33:31 86° W 18:37:59 10° N
Cosmos 1703 4.4 18:33:11 10° SSW 18:36:55 44° WNW 18:40:41 10° N
Coronas F rocket 1.3 18:35:55 10° S 18:37:55 58° SSW 18:37:55 58° SSW
Cosmos 923 Rocket 4.0 18:34:24 10° S 18:39:30 59° ESE 18:42:59 20° NNE
Cosmos 2237 Rocket 4.1 18:39:13 10° WSW 18:43:50 25° NW 18:48:30 10° N
SJ-6B 2.8 18:40:18 10° SSE 18:44:24 87° ENE 18:48:35 10° NNW
SOZ 4.3 18:42:44 10° WSW 18:44:53 84° NW 18:44:55 84° N
Cosmos 1633 Rocket 3.2 18:40:57 10° SSW 18:45:21 73° W 18:49:46 10° N
Cosmos 1680 Rocket 3.6 18:40:30 10° S 18:45:31 51° ESE 18:47:47 30° NE
Cosmos 2369 Rocket 2.7 18:40:51 10° N 18:46:06 37° ENE 18:47:04 35° E
NOSS 3-1 (C) 4.0 18:44:17 10° S 18:49:23 34° ESE 18:50:00 33° E
Cosmos 1092 Rocket 3.9 18:44:52 10° S 18:51:12 82° E 18:57:35 10° N
SL-16 R/B 3.2 18:47:19 10° SW 18:52:42 45° WNW 18:58:08 10° NNE
Orbus 7S? 4.4 18:50:22 10° NW 18:54:40 85° NE 19:05:16 10° SE
Lacrosse 5 3.4 18:52:18 10° NNW 18:56:07 21° NNE 18:56:21 21° NNE
Cosmos 1867 4.2 18:51:28 10° NNW 18:56:25 35° NE 18:56:25 35° NE
ATLAS 3B R/B 4.2 18:54:56 10° NNW 18:59:29 18° NNE 19:00:18 17° NNE
USA 215 3.2 18:56:43 28° ESE 19:00:30 77° NE 19:07:04 10° NW
ALOS 2.1 18:57:32 10° SSE 19:02:11 76° ENE 19:06:52 10° N
Cosmos 773 Rocket 4.5 18:57:59 10° SSW 19:03:05 59° WNW 19:07:41 13° NNE
Cosmos 1862 Rocket 3.4 19:04:05 10° N 19:08:30 89° E 19:12:50 10° S
Cosmos 2084 Rocket 4.2 19:06:55 10° NNW 19:09:20 36° NNW 19:09:20 36° NNW
FENGYUN 3A 3.5 19:06:33 10° SSE 19:11:55 89° ENE 19:17:20 10° NNW
Cosmos 292 Rocket 3.8 19:08:00 10° SSW 19:12:45 76° WNW 19:14:24 41° N
Cosmos 2195 Rocket 4.3 19:07:18 10° S 19:13:24 80° E 19:19:35 10° N
Cosmos 2112 Rocket 3.9 19:17:08 10° SSW 19:22:20 88° WNW 19:23:17 61° NNE
Meteor 2-20 Rocket 4.4 19:16:38 10° S 19:22:00 57° ESE 19:22:00 57° ESE
Lacrosse 4 Rocket 3.5 19:25:48 10° NW 19:29:08 25° WSW 19:32:29 10° SSW
Cosmos 1943 3.3 19:23:53 10° SSW 19:28:35 57° SSE 19:28:35 57° SSE
ATLAS 5 CENTAUR R/B 3.2 19:25:20 10° NNW 19:29:29 36° NNE 19:29:29 36° NNE
Cosmos 1933 Rocket 4.5 19:29:42 10° SSW 19:34:00 47° WNW 19:35:25 35° NNW
Resurs 01 Rocket 2.5 19:34:52 19° SSW 19:37:46 49° W 19:42:06 10° NNW
Cosmos 1417 Rocket 4.3 19:32:33 10° N 19:38:46 88° W 19:41:58 31° S
H-2A ROCKET BODY 4.1 19:29:41 10° WSW 19:43:02 27° SSW 19:45:25 22° S
Cosmos 1943 Rocket 3.6 19:42:04 10° NNW 19:44:33 26° N 19:44:33 26° N
USA 229 DEB 4.5 19:42:34 10° WSW 19:49:10 47° NW 19:51:58 32° N
USA 229 4.5 19:42:39 10° WSW 19:49:15 48° NW 19:52:02 32° N
Cosmos 1655 Rocket 4.2 19:46:00 10° SSW 19:52:21 70° W 19:58:42 10° N
CZ-4C R/B 3.6 19:51:45 10° NNW 19:56:23 37° N 19:56:23 37° N
NOSS 3-1 (A) 4.3 19:56:42 10° SSW 20:00:05 38° SSW 20:00:05 38° SSW
Cosmos 2369 Rocket 3.8 20:25:01 10° NW 20:28:57 31° W 20:28:57 31° W
